Flag for Germany Weather past 2 weeks in Erftstadt, North Rhine-Westphalia, Germany

Now
36 °F

Drizzle. Fog.


Feels Like: 36 °F
Forecast: 38 / 43 °F
Wind: 2 mph from South

Location: Noervenich

Current Time: Jan 26, 2015 at 4:27:03 AM

Latest Report: Jan 26, 2015 at 3:20 AM


Visibility: 3 mi

Pressure: 30.27 "Hg

Humidity: 100%

Dew point: 36 °F

Location of ErftstadtLocation

Historic Weather in Erftstadt — Graph

°F

Erftstadt temperature yesterday

Maximum temperature yesterday: 37 °F (at 1:20 PM)
Minimum temperature yesterday: 30 °F (at 2:20 AM)
Average temperature yesterday: 35 °F

Past Weeks' High & Low Weather Summary

 TemperatureHumidityPressure
High55 °F (Jan 13, 1:20 PM)100% (Jan 17, 6:20 AM)30.42 "Hg (Jan 17, 6:20 AM)
Low25 °F (Jan 24, 3:20 AM)55% (Jan 13, 1:20 PM)29.47 "Hg (Jan 15, 3:20 PM)
Average38 °F81%29.96 "Hg
* Reported Jan 11 2:20 AM — Jan 26 2:20 AM, Erftstadt, Weather by CustomWeather, © 2014

Note: Actual official high and low records may vary slightly from our data, if they occured in-between our weather recording intervals... More about our weather records

Advertising

Erftstadt weather history for previous 24 hours

 ConditionsComfort  
Time TempWeatherWind HumidityBarometerVisibility
2:20 AM
Jan 26
36 °FDrizzle. Fog.2 mph100%30.30 "Hg3 mi
1:20 AM36 °FLight rain. Partly cloudy.2 mph93%30.30 "HgN/A
12:20 AM36 °FLight rain. Partly cloudy.2 mph93%30.33 "HgN/A
11:20 PM
Jan 25
36 °FLight rain. Mostly cloudy.2 mph93%30.33 "Hg5 mi
10:20 PM36 °FLight rain. Overcast.3 mph93%30.36 "Hg4 mi
9:20 PM36 °FLight rain. Fog.3 mph93%30.36 "Hg3 mi
8:20 PM37 °FLight rain. Fog.5 mph93%30.36 "Hg3 mi
7:20 PM36 °FDrizzle. Fog.5 mph100%30.39 "Hg2 mi
6:20 PM37 °FDrizzle. Fog.3 mph93%30.39 "Hg2 mi
5:20 PM37 °FLight rain. Fog.5 mph93%30.39 "Hg2 mi
4:20 PM37 °FLight rain. Fog.6 mph93%30.39 "Hg2 mi
3:20 PM37 °FLight rain. Fog.7 mph93%30.39 "Hg2 mi
2:20 PM37 °FFog.3 mph87%30.36 "Hg3 mi
1:20 PM37 °FFog.5 mph87%30.39 "Hg3 mi
12:20 PM36 °FFog.7 mph93%30.39 "Hg3 mi
11:20 AM36 °FChilly.6 mph93%30.42 "Hg3 mi
10:20 AM36 °FChilly.6 mph93%30.42 "Hg3 mi
9:20 AM34 °FChilly.5 mph93%30.42 "Hg3 mi
8:20 AM34 °FChilly.6 mph93%30.39 "Hg3 mi
7:20 AM34 °FChilly.6 mph93%30.39 "Hg3 mi
6:20 AM32 °FChilly.3 mph93%30.39 "Hg3 mi
5:20 AM30 °FPassing clouds.6 mph100%30.36 "HgN/A
4:20 AM30 °FPassing clouds.6 mph93%30.36 "HgN/A
Weather by CustomWeather, © 2014

See weather overviewHow to use our weather pages